Location: Ottawa
(45.4170°N, 75.7000°W)
Time: 10:48:37
(UTC-04:00)

Iridium 91 - Visible Passes

Search period start: 02 September 2015 00:00
Search period end: 12 September 2015 00:00
Orbit: 776 x 779 km, 86.4° (Epoch: 02 September)

Date Brightness Start Highest point End Pass type
(mag) Time Alt. Az. Time Alt. Az. Time Alt. Az.
02 Sep 8.0 01:46:26 10° NE 01:48:38 13° ENE 01:49:31 13° ENE visible
02 Sep 5.5 03:25:00 10° N 03:29:57 80° NNW 03:29:57 80° NNW visible
02 Sep 7.5 05:08:34 10° WNW 05:10:14 11° WNW 05:10:24 11° WNW visible
03 Sep 6.2 02:51:32 10° N 02:56:08 51° ENE 02:56:08 51° ENE visible
03 Sep 7.0 04:33:14 10° NNW 04:36:35 20° WNW 04:36:35 20° WNW visible
04 Sep 7.1 02:18:21 10° NNE 02:22:20 30° ENE 02:22:20 30° ENE visible
04 Sep 6.5 03:59:00 10° NNW 04:02:47 32° WNW 04:02:47 32° WNW visible
05 Sep 7.8 01:45:35 10° NNE 01:48:33 18° ENE 01:48:33 18° ENE visible
05 Sep 6.2 03:25:09 10° N 03:29:00 46° NW 03:29:00 46° NW visible
06 Sep 6.4 02:51:33 10° N 02:55:14 46° N 02:55:14 46° N visible
06 Sep 7.5 04:34:08 10° NW 04:35:40 13° WNW 04:35:40 13° WNW visible
07 Sep 7.1 02:18:13 10° N 02:21:29 33° NE 02:21:29 33° NE visible
07 Sep 7.1 03:59:27 10° NNW 04:01:56 21° NW 04:01:56 21° NW visible
08 Sep 7.7 01:45:08 10° NNE 01:47:45 21° NE 01:47:45 21° NE visible
08 Sep 6.9 03:25:24 10° NNW 03:28:12 29° NW 03:28:12 29° NW visible
09 Sep 8.1 01:12:41 10° NE 01:14:01 13° NE 01:14:01 13° NE visible
09 Sep 6.9 02:51:40 10° N 02:54:28 33° N 02:54:28 33° N visible
10 Sep 7.3 02:18:09 10° N 02:20:45 29° NNE 02:20:45 29° NNE visible
10 Sep 7.6 04:00:07 10° NW 04:01:12 14° NW 04:01:12 14° NW visible
11 Sep 7.7 01:44:55 10° NNE 01:47:04 22° NNE 01:47:04 22° NNE visible
11 Sep 7.5 03:25:46 10° NNW 03:27:31 19° NW 03:27:31 19° NW visible
